Tracking 35237 objects as of 5-Sep-2026
HD Live streaming from Space Station
objects crossing your sky now

STARLINK-3275


STARLINK-3275 is no longer on orbit
STARLINK-3275 is classified as:


NORAD ID: 50188
Int'l Code: 2021-125AJ
Launch date: December 18, 2021
Source: United States (US)
Launch site: AIR FORCE WESTERN TEST RANGE (AFWTR)
Decay date: 2025-08-13
Your satellite tracking list
Your tracking list is empty




NASA's NSSDC Master Catalog

Two Line Element Set (TLE):
1 50188U 21125AJ  25225.41399707  .24904587  12526-4  67514-3 0  9994
2 50188  53.1718 333.9721 0006473 286.2549 151.2503 16.45228929203890
Source of the keplerian elements: AFSPC